This is the latest recevied weather packets stored in our database for station/object HA5CD-6. If no packets are shown the sender has not sent any weather packets the latest 10 day(s).
| Time | Temp. | Humidity | Pressure | Rain* | Wind** | Luminosity | Snow |
|---|---|---|---|---|---|---|---|
| 1777650082 | 20° C | 27% | 1001 hPa | - | - | - | - |
| 1777649482 | 21.67° C | 26% | 1001 hPa | - | - | - | - |
| 1777648886 | 24.44° C | 22% | 1001 hPa | - | - | - | - |
| 1777648282 | 24.44° C | 21% | 1001 hPa | - | - | - | - |
| 1777647681 | 24.44° C | 22% | 1001 hPa | - | - | - | - |
| 1777647082 | 23.33° C | 23% | 1001 hPa | - | - | - | - |
| 1777646481 | 27.22° C | 19% | 1001 hPa | - | - | - | - |
| 1777645881 | 23.33° C | 23% | 1001 hPa | - | - | - | - |
| 1777645280 | 22.78° C | 23% | 1001 hPa | - | - | - | - |
| 1777644680 | 22.22° C | 24% | 1002 hPa | - | - | - | - |
| 1777644080 | 27.22° C | 20% | 1001 hPa | - | - | - | - |
| 1777642880 | 19.44° C | 27% | 1002 hPa | - | - | - | - |
| 1777642280 | 27.22° C | 20% | 1002 hPa | - | - | - | - |
| 1777641680 | 20.56° C | 26% | 1002 hPa | - | - | - | - |
| 1777641079 | 21.11° C | 26% | 1002 hPa | - | - | - | - |
| 1777640479 | 20° C | 26% | 1002 hPa | - | - | - | - |
| 1777638678 | 22.22° C | 23% | 1002 hPa | - | - | - | - |
| 1777638078 | 24.44° C | 20% | 1002 hPa | - | - | - | - |
| 1777636878 | 23.89° C | 23% | 1003 hPa | - | - | - | - |
| 1777636279 | 19.44° C | 26% | 1003 hPa | - | - | - | - |
| 1777635677 | 21.67° C | 23% | 1003 hPa | - | - | - | - |
| 1777635077 | 22.22° C | 25% | 1003 hPa | - | - | - | - |
| 1777634477 | 19.44° C | 26% | 1003 hPa | - | - | - | - |
| 1777633277 | 23.33° C | 23% | 1003 hPa | - | - | - | - |
| 1777632677 | 21.67° C | 23% | 1003 hPa | - | - | - | - |
* Rain since midnight (hover to see other rain measurements)
** Current wind speed in m/s (hover to see current wind gust speed)